OBJECT C

基本信息
目录编号:
64050
目录名称:
OBJECT C
国际标识:
2025-103C
轨道中心:
EARTH
物体状态:
在轨
发射日期:
2025-05-17 UTC
国别:
中国 (CN)
轨道信息
数据来源: 国际轨道数据
星历时间: 2026-09-05T13:14:05+0800
半长轴: 6883.245km
偏心率: 0.0001173
轨道倾角: 97.368°
近地点辐角: 210.848°
升交点赤经: 318.054°
平近点角: 149.268°
近地点: 504.3km
远地点: 505.916km
周期: 94.722分钟
每日圈数: 15.202429
详细信息
发射场:
JSC
轨道高度:
LEO
数据来源:
AOE Working Group
参考系:
TEME
时间系统:
UTC
历元类型:
SGP4
2D轨道图
3D轨道图
轨道高度分析图
轨道倾角分析图
轨道综合分析图
查看轨道综合分析图